Location: *
(43.4667°N, 11.6833°E)
Time: 02:54:51
(UTC+00:00)

Lacrosse 5 - Pass Details

Date: 19 July 2019
Orbit: 717 x 722 km, 57.0° (Epoch: 01 August)

Event Time Altitude Azimuth Distance (km) Brightness Sun altitude
Rises 23:36:17 0° 311° (NW) 3,127 5.7 -25.7°
Reaches altitude 10° 23:38:40 10° 310° (NW) 2,204 4.8 -25.6°
Enters shadow 23:43:22 72° 270° (W) 754 1.8 -25.5°
